Simultaneous Nadir Overpasses (SNOs) Predictions

Prediction of SNOs between LANDSAT-8 and NOAA-19 Satellite Orbit:

Table of predicted SNOs for the next 14.0 days since TLE Epoch: 2/22/2014
Index Date (LANDSAT-8) Time (LANDSAT-8) Lat,Lon (LANDSAT-8) SZA (LANDSAT-8 ) Date (NOAA-19) Time (NOAA-19) Lat,Lon (NOAA-19) SZA (NOAA-19 ) Distance(km) Time Diff (sec)
1 02/22/2014 19:26:30 71.66,-112.82 81.62 02/22/2014 19:25:18 71.66,-112.83 81.63 0.84 72
2 02/22/2014 20:16:00 -71.53, 54.61 98.52 02/22/2014 20:16:15 -71.51, 54.69 98.54 3.39 15
3 02/25/2014 00:10:38 72.04, 176.78 81.18 02/25/2014 00:09:28 72.11, 175.31 81.30 50.70 70
4 02/25/2014 01:00:14 -71.60, -16.35 99.27 02/25/2014 01:00:18 -71.58, -16.41 99.28 2.92 4
5 02/27/2014 05:44:29 -71.59, -87.44 100.10 02/27/2014 05:44:20 -71.60, -87.44 100.08 1.56 9
6 02/27/2014 06:34:03 71.11, 79.44 79.44 02/27/2014 06:35:13 71.10, 80.71 79.38 45.94 70
7 03/01/2014 10:28:43 -71.61,-158.47 100.91 03/01/2014 10:28:22 -71.63,-158.48 100.88 3.01 21
8 03/01/2014 11:18:10 71.51, 9.01 78.98 03/01/2014 11:19:22 71.52, 8.96 78.99 2.38 72
9 03/03/2014 15:12:56 -71.66, 130.55 101.71 03/03/2014 15:12:23 -71.63, 130.55 101.73 3.43 33
10 03/03/2014 16:02:22 71.56, -61.98 78.19 03/03/2014 16:03:22 71.55, -62.07 78.18 3.32 60
11 03/05/2014 19:57:08 -71.68, 59.53 102.53 03/05/2014 19:56:24 -71.68, 59.46 102.52 2.41 44
12 03/05/2014 20:46:36 71.53,-133.09 77.31 03/05/2014 20:47:22 71.53,-133.02 77.31 2.53 46
13 03/08/2014 00:41:21 -71.69,
